Hourly Weather Goianesia

Today, 3 December, Thursday

Time Temperature Precipitation Wind Pressure Humidity
00:00 +24°C° 0 mm 0 mps 704 mmHg 54%
01:00 +24°C° 0 mm 0 mps 703 mmHg 56%
02:00 +23°C° 0 mm 0 mps 703 mmHg 57%
03:00 +23°C° 0 mm 0 mps 702 mmHg 59%
04:00 +23°C° 0 mm 0 mps 703 mmHg 61%
05:00 +22°C° 0 mm 0 mps 703 mmHg 63%
06:00 +22°C° 0 mm 0 mps 703 mmHg 66%
07:00 +26°C° 0 mm 1 mps 704 mmHg 60%
08:00 +29°C° 0 mm 1 mps 705 mmHg 54%
09:00 +31°C° 0 mm 1 mps 705 mmHg 48%
10:00 +32°C° 0 mm 1 mps 705 mmHg 44%
11:00 +34°C° 0 mm 2 mps 705 mmHg 40%
12:00 +36°C° 0 mm 2 mps 705 mmHg 36%
13:00 +36°C° 0 mm 2 mps 704 mmHg 36%
14:00 +36°C° 0 mm 2 mps 704 mmHg 36%
15:00 +35°C° 0 mm 2 mps 703 mmHg 36%
16:00 +34°C° 0 mm 2 mps 703 mmHg 43%
17:00 +31°C° 0 mm 1 mps 703 mmHg 49%
18:00 +30°C° 0 mm 1 mps 702 mmHg 55%
19:00 +29°C° 0 mm 1 mps 703 mmHg 54%
20:00 +28°C° 0 mm 1 mps 703 mmHg 54%
21:00 +27°C° 0 mm 1 mps 704 mmHg 53%
22:00 +26°C° 0 mm 1 mps 704 mmHg 55%
23:00 +26°C° 0 mm 1 mps 704 mmHg 56%

Tomorrow, 4 December, Friday

Time Temperature Precipitation Wind Pressure Humidity
00:00 +25°C° 0 mm 1 mps 704 mmHg 58%
01:00 +25°C° 0 mm 1 mps 704 mmHg 60%
02:00 +25°C° 0 mm 1 mps 704 mmHg 62%
03:00 +24°C° 0 mm 1 mps 703 mmHg 64%
04:00 +24°C° 0 mm 1 mps 703 mmHg 66%
05:00 +24°C° 0 mm 1 mps 703 mmHg 69%
06:00 +23°C° 0 mm 1 mps 704 mmHg 71%
07:00 +26°C° 0 mm 1 mps 705 mmHg 65%
08:00 +29°C° 0 mm 1 mps 705 mmHg 58%
09:00 +32°C° 0 mm 1 mps 706 mmHg 52%
10:00 +33°C° 0 mm 1 mps 706 mmHg 46%
11:00 +35°C° 0 mm 1 mps 706 mmHg 41%
12:00 +36°C° 0 mm 1 mps 706 mmHg 36%
13:00 +36°C° 0 mm 1 mps 705 mmHg 37%
14:00 +35°C° 0 mm 1 mps 705 mmHg 38%
15:00 +35°C° 0 mm 1 mps 704 mmHg 39%
16:00 +33°C° 0 mm 1 mps 703 mmHg 45%
17:00 +32°C° 0 mm 1 mps 703 mmHg 51%
18:00 +30°C° 0 mm 1 mps 703 mmHg 58%
19:00 +29°C° 0 mm 1 mps 703 mmHg 59%
20:00 +26°C° 0 mm 0 mps 703 mmHg 60%
21:00 +25°C° 0 mm 0 mps 703 mmHg 61%
22:00 +24°C° 0 mm 0 mps 703 mmHg 62%
23:00 +24°C° 0 mm 0 mps 703 mmHg 62%

Day after tomorrow, 5 December, Saturday

Time Temperature Precipitation Wind Pressure Humidity
00:00 +24°C° 0 mm 0 mps 703 mmHg 63%
01:00 +23°C° 0 mm 0 mps 703 mmHg 64%
02:00 +25°C° 0 mm 1 mps 703 mmHg 65%
03:00 +25°C° 0 mm 1 mps 703 mmHg 66%
04:00 +25°C° 0 mm 1 mps 703 mmHg 68%
05:00 +24°C° 0 mm 1 mps 703 mmHg 70%
06:00 +24°C° 0 mm 1 mps 704 mmHg 72%
07:00 +27°C° 0 mm 1 mps 704 mmHg 65%
08:00 +29°C° 0 mm 1 mps 705 mmHg 59%
09:00 +32°C° 0 mm 1 mps 706 mmHg 53%
10:00 +33°C° 0 mm 1 mps 706 mmHg 49%
11:00 +34°C° 0 mm 1 mps 706 mmHg 44%
12:00 +36°C° 0 mm 2 mps 705 mmHg 40%
13:00 +35°C° 0.3 mm 2 mps 705 mmHg 46%
14:00 +34°C° 0.3 mm 2 mps 704 mmHg 52%
15:00 +31°C° 0.3 mm 2 mps 703 mmHg 58%
16:00 +29°C° 3.1 mm 2 mps 703 mmHg 70%
17:00 +26°C° 3.1 mm 3 mps 702 mmHg 81%
18:00 +24°C° 3.1 mm 3 mps 702 mmHg 93%
19:00 +22°C° 7.9 mm 3 mps 703 mmHg 92%
20:00 +21°C° 7.9 mm 2 mps 703 mmHg 91%
21:00 +21°C° 7.9 mm 2 mps 703 mmHg 90%
22:00 +21°C° 0.3 mm 2 mps 703 mmHg 89%
23:00 +22°C° 0.3 mm 1 mps 703 mmHg 88%

6 December, Sunday

Time Temperature Precipitation Wind Pressure Humidity
00:00 +23°C° 0.3 mm 1 mps 703 mmHg 87%
01:00 +23°C° 0.3 mm 1 mps 702 mmHg 88%
02:00 +22°C° 0.3 mm 1 mps 702 mmHg 89%
03:00 +22°C° 0.3 mm 1 mps 701 mmHg 90%
04:00 +22°C° 0.9 mm 1 mps 702 mmHg 91%
05:00 +20°C° 0.9 mm 0 mps 702 mmHg 92%
06:00 +21°C° 0.9 mm 0 mps 703 mmHg 93%
07:00 +21°C° 0.9 mm 0 mps 703 mmHg 93%
08:00 +23°C° 0.9 mm 1 mps 704 mmHg 93%
09:00 +23°C° 0.9 mm 1 mps 704 mmHg 93%
10:00 +24°C° 0.5 mm 1 mps 704 mmHg 90%
11:00 +25°C° 0.5 mm 1 mps 704 mmHg 87%
12:00 +26°C° 0.5 mm 2 mps 704 mmHg 84%
13:00 +26°C° 1 mm 2 mps 703 mmHg 82%
14:00 +27°C° 1 mm 2 mps 703 mmHg 81%
15:00 +27°C° 1 mm 2 mps 702 mmHg 79%
16:00 +26°C° 0.3 mm 2 mps 702 mmHg 82%
17:00 +26°C° 0.3 mm 1 mps 702 mmHg 85%
18:00 +23°C° 0.3 mm 0 mps 701 mmHg 88%
19:00 +22°C° 0 mm 0 mps 702 mmHg 89%
20:00 +24°C° 0 mm 1 mps 702 mmHg 89%
21:00 +23°C° 0 mm 1 mps 702 mmHg 90%
22:00 +23°C° 0.1 mm 1 mps 703 mmHg 90%
23:00 +21°C° 0.1 mm 0 mps 703 mmHg 90%

7 December, Monday

Time Temperature Precipitation Wind Pressure Humidity
00:00 +21°C° 0.1 mm 0 mps 703 mmHg 90%
01:00 +21°C° 0.4 mm 0 mps 703 mmHg 91%
02:00 +21°C° 0.4 mm 0 mps 703 mmHg 93%
03:00 +23°C° 0.4 mm 1 mps 702 mmHg 94%
04:00 +21°C° 0.7 mm 0 mps 703 mmHg 95%
05:00 +21°C° 0.7 mm 0 mps 703 mmHg 95%
06:00 +20°C° 0.7 mm 0 mps 703 mmHg 95%
07:00 +21°C° 0.5 mm 0 mps 704 mmHg 93%
08:00 +24°C° 0.5 mm 1 mps 705 mmHg 91%
09:00 +25°C° 0.5 mm 1 mps 705 mmHg 89%
10:00 +26°C° 1.6 mm 2 mps 705 mmHg 87%
11:00 +26°C° 1.6 mm 2 mps 705 mmHg 85%
12:00 +27°C° 1.6 mm 3 mps 704 mmHg 83%
13:00 +27°C° 1.6 mm 2 mps 704 mmHg 82%
14:00 +27°C° 1.6 mm 1 mps 703 mmHg 81%
15:00 +26°C° 1.6 mm 0 mps 702 mmHg 80%
16:00 +27°C° 0.2 mm 1 mps 702 mmHg 84%
17:00 +26°C° 0.2 mm 1 mps 702 mmHg 87%
18:00 +25°C° 0.2 mm 1 mps 702 mmHg 91%
19:00 +24°C° 0 mm 1 mps 702 mmHg 91%
20:00 +24°C° 0 mm 1 mps 703 mmHg 92%
21:00 +23°C° 0 mm 1 mps 703 mmHg 92%
22:00 +21°C° 0.2 mm 0 mps 703 mmHg 92%
23:00 +21°C° 0.2 mm 0 mps 703 mmHg 92%

8 December, Tuesday

Time Temperature Precipitation Wind Pressure Humidity
00:00 +21°C° 0.2 mm 0 mps 703 mmHg 92%
01:00 +20°C° 0.8 mm 0 mps 703 mmHg 93%
02:00 +20°C° 0.8 mm 0 mps 703 mmHg 94%
03:00 +20°C° 0.8 mm 0 mps 702 mmHg 95%
04:00 +20°C° 1.1 mm 0 mps 703 mmHg 96%
05:00 +20°C° 1.1 mm 0 mps 703 mmHg 96%
06:00 +20°C° 1.1 mm 0 mps 703 mmHg 97%
07:00 +21°C° 1 mm 0 mps 704 mmHg 94%
08:00 +24°C° 1 mm 1 mps 705 mmHg 91%
09:00 +26°C° 1 mm 1 mps 705 mmHg 89%
10:00 +27°C° 1.9 mm 1 mps 705 mmHg 85%
11:00 +27°C° 1.9 mm 2 mps 705 mmHg 82%
12:00 +28°C° 1.9 mm 2 mps 705 mmHg 78%
13:00 +28°C° 2.1 mm 2 mps 704 mmHg 80%
14:00 +28°C° 2.1 mm 2 mps 703 mmHg 81%
15:00 +28°C° 2.1 mm 2 mps 703 mmHg 82%
16:00 +27°C° 1.1 mm 1 mps 703 mmHg 84%
17:00 +26°C° 1.1 mm 1 mps 703 mmHg 86%
18:00 +24°C° 1.1 mm 0 mps 703 mmHg 88%
19:00 +23°C° 0.2 mm 0 mps 703 mmHg 89%
20:00 +22°C° 0.2 mm 0 mps 704 mmHg 90%
21:00 +23°C° 0.2 mm 1 mps 704 mmHg 90%
22:00 +23°C° 0.1 mm 1 mps 704 mmHg 91%
23:00 +21°C° 0.1 mm 0 mps 704 mmHg 91%
Show more

We Need Your Consent

Meteoprog and our Service Providers may store and access personal data such as cookies, device identifiers or other similar technologies on your device and process such data to personalise content and ads, as well as provide social media features and to analyse the traffic.

  • Store and/or access information on your device

    Cookies, device identifiers or other information can be stored or accessed on your device for the purposes indicated above.

  • Personalised ads and content, ad and content measurement, audience insights, and products development

    Ads and content can be personalised based on a profile. More data can be added to better personalise ads and content. Ad and content performance can be measured. Insights about the audience who saw the ads and content can be derived. Such data can be used to develop or improve user’s experience, systems and software.

By clicking ‘I Agree’ you will allow the use of indicated cookies, device identifiers, web beacons or other similar technologies. Your settings can be changed in the browser on your device.

For certain purposes, legitimate interests may be relied on, rather than consent. You can read more about this in our Privacy and Cookie Policy.